Regional Weather Roundup
Issued by NWS

Home | Current Version | Previous Version | Text Only | Print | Product List | Glossary Off
Versions: 1 2 3 4 5 6 7 8 9 10 11 12 13 14 15 16 17 18 19 20 21 22 23 24 25 26 27 28 29 30 31 32 33 34 35 36 37 38 39 40 41 42 43 44 45 46 47 48 49 50

000
ASUS44 KMEG 180200
RWRTN
TENNESSEE HOURLY STATE WEATHER ROUNDUP
NATIONAL WEATHER SERVICE MEMPHIS TN
800 PM CST WED DEC 17 2014

TNZ002-004-019-021-049-052-054-088>092-180300-
WEST TENNESSEE

CITY           SKY/WX    TMP DP  RH WIND       PRES   REMARKS
MEMPHIS INTL   CLOUDY    40  32  73 NE10      30.24F WCI  33
NWS MEMPHIS      N/A     39 N/A N/A MISG        N/A
JACKSON        CLOUDY    37  31  78 CALM      30.27S
DYERSBURG      CLOUDY    37  21  52 NE3       30.29S
UNION CITY     CLEAR     34  30  86 NE6       30.25F WCI  29
PARIS          CLEAR     30  27  86 CALM      30.26S
LEXINGTON      CLEAR     34  28  80 NE3       30.25F
SAVANNAH       CLEAR     37  30  75 NE5       30.26F WCI  34
$$

TNZ008-025-027-028-033-062-065-066-180300-
NORTH MIDDLE TENNESSEE

CITY           SKY/WX    TMP DP  RH WIND       PRES   REMARKS
NASHVILLE      PTCLDY    35  28  75 NW5       30.28R WCI  31
CLARKSVILLE    CLEAR     32  26  78 N5        30.29R WCI  27
COOKEVILLE     CLEAR     30  28  93 CALM      30.24R
CROSSVILLE     MOCLDY    33  28  81 NW3       30.21R
$$

TNZ061-075-076-078-094-096-097-180300-
SOUTH MIDDLE TENNESSEE

CITY           SKY/WX    TMP DP  RH WIND       PRES   REMARKS
FAYETTEVILLE   CLEAR     34  28  80 N10G25    30.23F WCI  26
TULLAHOMA      CLEAR     30  28  93 CALM      30.24R
WINCHESTER     CLEAR     34  30  86 NW3       30.25R
SHELBYVILLE    CLEAR     30  30 100 CALM      30.26S
$$

TNZ017-018-042-046-047-180300-
NORTHEAST TENNESSEE

CITY           SKY/WX    TMP DP  RH WIND       PRES   REMARKS
TRI CITIES     CLEAR     35  30  82 S5        30.18S WCI  31
ELIZABETHTON   PTCLDY    30  28  93 CALM      30.18R
$$

TNZ012-013-036-069-073-074-180300-
CENTRAL EAST TENNESSEE

CITY           SKY/WX    TMP DP  RH WIND       PRES   REMARKS
KNOXVILLE      CLOUDY    39  32  76 CALM      30.20F
OAK RIDGE      PTCLDY    36  31  82 CALM      30.22S
GATLINBURG     CLEAR     34  32  93 CALM      30.20S
$$

TNZ083-085-099-180300-
SOUTHEAST TENNESSEE

CITY           SKY/WX    TMP DP  RH WIND       PRES   REMARKS
CHATTANOOGA    MOCLDY    38  32  79 NW3       30.22F
$$

SKY/WX REPORTED AS FAIR MEANS FEW OR NO CLOUDS BELOW
12 THOUSAND FEET.




USA.gov is the U.S. government's official web portal to all federal, state and local government web resources and services.